sat.trackr.live / text

‹ back to catalog

STARLINK-5444

NORAD 54768 · 2022-175L

PAYLOAD ACTIVE UNKNOWN

§ Identity

Operator
Country
US
Launch date
2022-12-17
Launch site
AFETR
Launch vehicle
Mass (kg)
RCS (m²)

Purposes: comms

External: N2YO · Heavens-Above · Gunter

§ Orbital elements

Epoch: 2026-09-20T06:19:12.793728Z

Period
94.01 min
Inclination
53.1594°
Eccentricity
0.0001252
Mean motion
15.31698905 rev/d
Perigee alt
469.9 km
Apogee alt
471.6 km
Semi-major
6,848.9 km
B*
2.4380e-5
RAAN
220.9626°
Arg perigee
92.3496°
Mean anomaly
267.7649°
Rev number
20,970

§ Raw data

STARLINK-54441 54768U 22175L   26263.26334252  .00000391  00000+0  24380-4 0  99962 54768  53.1594 220.9626 0001252  92.3496 267.7649 15.31698905209705

JSON: /api/v1/satellites/54768 · /tle

For live sub-satellite position, see the globe view (requires WebGL).

§ Visibility from observer

Set your observer location to see the next 7 days of passes ≥ 10°. The values pass through the URL so the page stays shareable.

No JS? Fill the form by hand. The geolocation button needs JavaScript.